PLA_CODE;SMP_DB_REAL;SMP_DE_REAL;SMP_D_ANALYSIS;POL_CODE;MEA_CODE;MEA_PHYSICAL_UNIT;MEA_VALUE;MEA_F_STATUS;JOB_TYPE
PBW02e;01/01/2023 00:01;01/01/2023 23:59;09/02/2023;PM10;PM10;ug/m3;9.970880424;A;DATA_VALIDATE_TECH
PBW02e;02/01/2023 00:01;02/01/2023 23:59;09/02/2023;PM10;PM10;ug/m3;9.145111121;A;DATA_VALIDATE_TECH
PBW02e;03/01/2023 00:01;03/01/2023 23:59;09/02/2023;PM10;PM10;ug/m3;5.207700319;A;DATA_VALIDATE_TECH
PBW02e;04/01/2023 00:01;04/01/2023 23:59;09/02/2023;PM10;PM10;ug/m3;2;O;DATA_VALIDATE_TECH
PBW02e;05/01/2023 00:01;05/01/2023 23:59;09/02/2023;PM10;PM10;ug/m3;7.530345477;A;DATA_VALIDATE_TECH
PBW02e;06/01/2023 00:01;06/01/2023 23:59;09/02/2023;PM10;PM10;ug/m3;2.368070581;A;DATA_VALIDATE_TECH
PBW02e;07/01/2023 00:01;07/01/2023 23:59;09/02/2023;PM10;PM10;ug/m3;4.645290316;A;DATA_VALIDATE_TECH
PBW02e;08/01/2023 00:01;08/01/2023 23:59;09/02/2023;PM10;PM10;ug/m3;2;O;DATA_VALIDATE_TECH
PBW02e;09/01/2023 00:01;09/01/2023 23:59;09/02/2023;PM10;PM10;ug/m3;2;O;DATA_VALIDATE_TECH
PBW02e;10/01/2023 00:01;10/01/2023 23:59;09/02/2023;PM10;PM10;ug/m3;8.818480696;A;DATA_VALIDATE_TECH
PBW02e;11/01/2023 00:01;11/01/2023 23:59;09/02/2023;PM10;PM10;ug/m3;4.308684817;A;DATA_VALIDATE_TECH
PBW02e;12/01/2023 00:01;12/01/2023 23:59;09/02/2023;PM10;PM10;ug/m3;3.45603129;A;DATA_VALIDATE_TECH
PBW02e;13/01/2023 00:01;13/01/2023 23:59;09/02/2023;PM10;PM10;ug/m3;5.253125743;A;DATA_VALIDATE_TECH
PBW02e;14/01/2023 00:01;14/01/2023 23:59;09/02/2023;PM10;PM10;ug/m3;3.819521013;A;DATA_VALIDATE_TECH
PBW02e;15/01/2023 00:01;15/01/2023 23:59;09/02/2023;PM10;PM10;ug/m3;2;O;DATA_VALIDATE_TECH
PBW02e;16/01/2023 00:01;16/01/2023 23:59;09/02/2023;PM10;PM10;ug/m3;2;O;DATA_VALIDATE_TECH
PBW02e;17/01/2023 00:01;17/01/2023 23:59;09/02/2023;PM10;PM10;ug/m3;4.217850453;A;DATA_VALIDATE_TECH
PBW02e;18/01/2023 00:01;18/01/2023 23:59;09/02/2023;PM10;PM10;ug/m3;11.85604727;A;DATA_VALIDATE_TECH
PBW02e;19/01/2023 00:01;19/01/2023 23:59;09/02/2023;PM10;PM10;ug/m3;10.54248367;A;DATA_VALIDATE_TECH
PBW02e;20/01/2023 00:01;20/01/2023 23:59;09/02/2023;PM10;PM10;ug/m3;8.700861297;A;DATA_VALIDATE_TECH
PBW02e;21/01/2023 00:01;21/01/2023 23:59;09/02/2023;PM10;PM10;ug/m3;7.247825319;A;DATA_VALIDATE_TECH
PBW02e;22/01/2023 00:01;22/01/2023 23:59;09/02/2023;PM10;PM10;ug/m3;7.629005241;A;DATA_VALIDATE_TECH
PBW02e;23/01/2023 00:01;23/01/2023 23:59;09/02/2023;PM10;PM10;ug/m3;3.292745706;A;DATA_VALIDATE_TECH
PBW02e;24/01/2023 00:01;24/01/2023 23:59;30/03/2023;PM10;PM10;ug/m3;6.449510207;A;DATA_VALIDATE_TECH
PBW02e;25/01/2023 00:01;25/01/2023 23:59;30/03/2023;PM10;PM10;ug/m3;5.206755526;A;DATA_VALIDATE_TECH
PBW02e;26/01/2023 00:01;26/01/2023 23:59;30/03/2023;PM10;PM10;ug/m3;6.794194179;A;DATA_VALIDATE_TECH
PBW02e;27/01/2023 00:01;27/01/2023 23:59;30/03/2023;PM10;PM10;ug/m3;3.002670489;A;DATA_VALIDATE_TECH
PBW02e;28/01/2023 00:01;28/01/2023 23:59;30/03/2023;PM10;PM10;ug/m3;4.073687072;A;DATA_VALIDATE_TECH
PBW02e;29/01/2023 00:01;29/01/2023 23:59;30/03/2023;PM10;PM10;ug/m3;19.86010324;A;DATA_VALIDATE_TECH
PBW02e;30/01/2023 00:01;30/01/2023 23:59;30/03/2023;PM10;PM10;ug/m3;10.42270262;A;DATA_VALIDATE_TECH
PBW02e;31/01/2023 00:01;31/01/2023 23:59;30/03/2023;PM10;PM10;ug/m3;10.21399986;A;DATA_VALIDATE_TECH
PBW02e;01/02/2023 00:01;01/02/2023 23:59;30/03/2023;PM10;PM10;ug/m3;12.63854249;A;DATA_VALIDATE_TECH
PBW02e;02/02/2023 00:01;02/02/2023 23:59;30/03/2023;PM10;PM10;ug/m3;7.919350798;A;DATA_VALIDATE_TECH
PBW02e;03/02/2023 00:01;03/02/2023 23:59;30/03/2023;PM10;PM10;ug/m3;2.322223778;A;DATA_VALIDATE_TECH
PBW02e;04/02/2023 00:01;04/02/2023 23:59;30/03/2023;PM10;PM10;ug/m3;5.3437062;A;DATA_VALIDATE_TECH
PBW02e;05/02/2023 00:01;05/02/2023 23:59;30/03/2023;PM10;PM10;ug/m3;7.96449764;A;DATA_VALIDATE_TECH
PBW02e;06/02/2023 00:01;06/02/2023 23:59;30/03/2023;PM10;PM10;ug/m3;9.290580632;A;DATA_VALIDATE_TECH
PBW02e;07/02/2023 00:01;07/02/2023 23:59;30/03/2023;PM10;PM10;ug/m3;7.773907679;A;DATA_VALIDATE_TECH
PBW02e;08/02/2023 00:01;08/02/2023 23:59;30/03/2023;PM10;PM10;ug/m3;11.08503653;A;DATA_VALIDATE_TECH
PBW02e;09/02/2023 00:01;09/02/2023 23:59;30/03/2023;PM10;PM10;ug/m3;27.63040786;A;DATA_VALIDATE_TECH
PBW02e;10/02/2023 00:01;10/02/2023 23:59;30/03/2023;PM10;PM10;ug/m3;33.6780844;A;DATA_VALIDATE_TECH
PBW02e;11/02/2023 00:01;11/02/2023 23:59;30/03/2023;PM10;PM10;ug/m3;27.32717759;A;DATA_VALIDATE_TECH
PBW02e;12/02/2023 00:01;12/02/2023 23:59;30/03/2023;PM10;PM10;ug/m3;16.63620569;A;DATA_VALIDATE_TECH
PBW02e;13/02/2023 00:01;13/02/2023 23:59;30/03/2023;PM10;PM10;ug/m3;10.72418536;A;DATA_VALIDATE_TECH
PBW02e;14/02/2023 00:01;14/02/2023 23:59;30/03/2023;PM10;PM10;ug/m3;22.07004713;A;DATA_VALIDATE_TECH
PBW02e;15/02/2023 00:01;15/02/2023 23:59;30/03/2023;PM10;PM10;ug/m3;26.71907178;A;DATA_VALIDATE_TECH
PBW02e;16/02/2023 00:01;16/02/2023 23:59;30/03/2023;PM10;PM10;ug/m3;25.46743913;A;DATA_VALIDATE_TECH
PBW02e;17/02/2023 00:01;17/02/2023 23:59;30/03/2023;PM10;PM10;ug/m3;2.812590795;A;DATA_VALIDATE_TECH
PBW02e;18/02/2023 00:01;18/02/2023 23:59;30/03/2023;PM10;PM10;ug/m3;2.658468823;A;DATA_VALIDATE_TECH
PBW02e;19/02/2023 00:01;19/02/2023 23:59;30/03/2023;PM10;PM10;ug/m3;4.272459207;A;DATA_VALIDATE_TECH
PBW02e;20/02/2023 00:01;20/02/2023 23:59;30/03/2023;PM10;PM10;ug/m3;12.43646804;A;DATA_VALIDATE_TECH
PBW02e;21/02/2023 00:01;21/02/2023 23:59;30/03/2023;PM10;PM10;ug/m3;21.44393883;A;DATA_VALIDATE_TECH
PBW02e;22/02/2023 00:01;22/02/2023 23:59;30/03/2023;PM10;PM10;ug/m3;21.63452879;A;DATA_VALIDATE_TECH
PBW02e;23/02/2023 00:01;23/02/2023 23:59;30/03/2023;PM10;PM10;ug/m3;10.69660564;A;DATA_VALIDATE_TECH
PBW02e;24/02/2023 00:01;24/02/2023 23:59;30/03/2023;PM10;PM10;ug/m3;11.98528164;A;DATA_VALIDATE_TECH
PBW02e;25/02/2023 00:01;25/02/2023 23:59;30/03/2023;PM10;PM10;ug/m3;7.456528085;A;DATA_VALIDATE_TECH
PBW02e;26/02/2023 00:01;26/02/2023 23:59;30/03/2023;PM10;PM10;ug/m3;3.619316873;A;DATA_VALIDATE_TECH
PBW02e;27/02/2023 00:01;27/02/2023 23:59;30/03/2023;PM10;PM10;ug/m3;2;O;DATA_VALIDATE_TECH
PBW02e;28/02/2023 00:01;28/02/2023 23:59;30/03/2023;PM10;PM10;ug/m3;5.941540652;A;DATA_VALIDATE_TECH
PBW02e;01/03/2023 00:01;01/03/2023 23:59;27/03/2023;PM10;PM10;ug/m3;15.5;A;DATA_VALIDATE_TECH
PBW02e;02/03/2023 00:01;02/03/2023 23:59;27/03/2023;PM10;PM10;ug/m3;19;A;DATA_VALIDATE_TECH
PBW02e;03/03/2023 00:01;03/03/2023 23:59;27/03/2023;PM10;PM10;ug/m3;22.6;A;DATA_VALIDATE_TECH
PBW02e;04/03/2023 00:01;04/03/2023 23:59;27/03/2023;PM10;PM10;ug/m3;19.1;A;DATA_VALIDATE_TECH
PBW02e;05/03/2023 00:01;05/03/2023 23:59;27/03/2023;PM10;PM10;ug/m3;6.7;A;DATA_VALIDATE_TECH
PBW02e;06/03/2023 00:01;06/03/2023 23:59;27/03/2023;PM10;PM10;ug/m3;13.2;A;DATA_VALIDATE_TECH
PBW02e;07/03/2023 00:01;07/03/2023 23:59;31/03/2023;PM10;PM10;ug/m3;11.3;A;DATA_VALIDATE_TECH
PBW02e;08/03/2023 00:01;08/03/2023 23:59;31/03/2023;PM10;PM10;ug/m3;4.7;A;DATA_VALIDATE_TECH
PBW02e;09/03/2023 00:01;09/03/2023 23:59;31/03/2023;PM10;PM10;ug/m3;6.4;A;DATA_VALIDATE_TECH
PBW02e;10/03/2023 00:01;10/03/2023 23:59;31/03/2023;PM10;PM10;ug/m3;4.4;A;DATA_VALIDATE_TECH
PBW02e;11/03/2023 00:01;11/03/2023 23:59;31/03/2023;PM10;PM10;ug/m3;10.1;A;DATA_VALIDATE_TECH
PBW02e;12/03/2023 00:01;12/03/2023 23:59;31/03/2023;PM10;PM10;ug/m3;12.7;A;DATA_VALIDATE_TECH
PBW02e;13/03/2023 00:01;13/03/2023 23:59;31/03/2023;PM10;PM10;ug/m3;4.8;A;DATA_VALIDATE_TECH
PBW02e;14/03/2023 00:01;14/03/2023 23:59;31/03/2023;PM10;PM10;ug/m3;3;O;DATA_VALIDATE_TECH
PBW02e;15/03/2023 00:01;15/03/2023 23:59;31/03/2023;PM10;PM10;ug/m3;8.4;A;DATA_VALIDATE_TECH
PBW02e;16/03/2023 00:01;16/03/2023 23:59;31/03/2023;PM10;PM10;ug/m3;9.4;A;DATA_VALIDATE_TECH
PBW02e;17/03/2023 00:01;17/03/2023 23:59;31/03/2023;PM10;PM10;ug/m3;12.4;A;DATA_VALIDATE_TECH
PBW02e;18/03/2023 00:01;18/03/2023 23:59;31/03/2023;PM10;PM10;ug/m3;11.2;A;DATA_VALIDATE_TECH
PBW02e;19/03/2023 00:01;19/03/2023 23:59;31/03/2023;PM10;PM10;ug/m3;6;A;DATA_VALIDATE_TECH
PBW02e;20/03/2023 00:01;20/03/2023 23:59;17/05/2023;PM10;PM10;ug/m3;10.3;A;DATA_VALIDATE_TECH
PBW02e;21/03/2023 00:01;21/03/2023 23:59;17/05/2023;PM10;PM10;ug/m3;8.2;A;DATA_VALIDATE_TECH
PBW02e;22/03/2023 00:01;22/03/2023 23:59;17/05/2023;PM10;PM10;ug/m3;6.3;A;DATA_VALIDATE_TECH
PBW02e;23/03/2023 00:01;23/03/2023 23:59;17/05/2023;PM10;PM10;ug/m3;3;O;DATA_VALIDATE_TECH
PBW02e;24/03/2023 00:01;24/03/2023 23:59;17/05/2023;PM10;PM10;ug/m3;3;O;DATA_VALIDATE_TECH
PBW02e;25/03/2023 00:01;25/03/2023 23:59;17/05/2023;PM10;PM10;ug/m3;3;O;DATA_VALIDATE_TECH
PBW02e;26/03/2023 00:01;26/03/2023 23:59;17/05/2023;PM10;PM10;ug/m3;3;O;DATA_VALIDATE_TECH
PBW02e;27/03/2023 00:01;27/03/2023 23:59;17/05/2023;PM10;PM10;ug/m3;4;A;DATA_VALIDATE_TECH
PBW02e;28/03/2023 00:01;28/03/2023 23:59;17/05/2023;PM10;PM10;ug/m3;7.9;A;DATA_VALIDATE_TECH
PBW02e;29/03/2023 00:01;29/03/2023 23:59;17/05/2023;PM10;PM10;ug/m3;9.1;A;DATA_VALIDATE_TECH
PBW02e;30/03/2023 00:01;30/03/2023 23:59;17/05/2023;PM10;PM10;ug/m3;7.1;A;DATA_VALIDATE_TECH
PBW02e;31/03/2023 00:01;31/03/2023 23:59;17/05/2023;PM10;PM10;ug/m3;4.1;A;DATA_VALIDATE_TECH
PBW02e;01/04/2023 00:01;01/04/2023 23:59;17/05/2023;PM10;PM10;ug/m3;3;O;DATA_VALIDATE_TECH
PBW02e;02/04/2023 00:01;02/04/2023 23:59;17/05/2023;PM10;PM10;ug/m3;3;O;DATA_VALIDATE_TECH
PBW02e;03/04/2023 00:01;03/04/2023 23:59;25/04/2023;PM10;PM10;ug/m3;3.6;A;DATA_VALIDATE_TECH
PBW02e;04/04/2023 00:01;04/04/2023 23:59;09/05/2023;PM10;PM10;ug/m3;3.5;A;DATA_VALIDATE_TECH
PBW02e;05/04/2023 00:01;05/04/2023 23:59;09/05/2023;PM10;PM10;ug/m3;10.8;A;DATA_VALIDATE_TECH
PBW02e;06/04/2023 00:01;06/04/2023 23:59;09/05/2023;PM10;PM10;ug/m3;10.7;A;DATA_VALIDATE_TECH
PBW02e;07/04/2023 00:01;07/04/2023 23:59;09/05/2023;PM10;PM10;ug/m3;6.2;A;DATA_VALIDATE_TECH
PBW02e;08/04/2023 00:01;08/04/2023 23:59;09/05/2023;PM10;PM10;ug/m3;12.8;A;DATA_VALIDATE_TECH
PBW02e;09/04/2023 00:01;09/04/2023 23:59;09/05/2023;PM10;PM10;ug/m3;9.3;A;DATA_VALIDATE_TECH
PBW02e;10/04/2023 00:01;10/04/2023 23:59;09/05/2023;PM10;PM10;ug/m3;4.2;A;DATA_VALIDATE_TECH
PBW02e;11/04/2023 00:01;11/04/2023 23:59;09/05/2023;PM10;PM10;ug/m3;5.5;A;DATA_VALIDATE_TECH
PBW02e;12/04/2023 00:01;12/04/2023 23:59;09/05/2023;PM10;PM10;ug/m3;3;O;DATA_VALIDATE_TECH
PBW02e;13/04/2023 00:01;13/04/2023 23:59;09/05/2023;PM10;PM10;ug/m3;7.9;A;DATA_VALIDATE_TECH
PBW02e;14/04/2023 00:01;14/04/2023 23:59;09/05/2023;PM10;PM10;ug/m3;5.4;A;DATA_VALIDATE_TECH
PBW02e;15/04/2023 00:01;15/04/2023 23:59;09/05/2023;PM10;PM10;ug/m3;5.2;A;DATA_VALIDATE_TECH
PBW02e;16/04/2023 00:01;16/04/2023 23:59;09/05/2023;PM10;PM10;ug/m3;5.5;A;DATA_VALIDATE_TECH
PBW02e;17/04/2023 00:01;17/04/2023 23:59;09/05/2023;PM10;PM10;ug/m3;10.9;A;DATA_VALIDATE_TECH
PBW02e;18/04/2023 00:01;18/04/2023 23:59;22/05/2023;PM10;PM10;ug/m3;12;A;DATA_VALIDATE_TECH
PBW02e;19/04/2023 00:01;19/04/2023 23:59;22/05/2023;PM10;PM10;ug/m3;7.3;A;DATA_VALIDATE_TECH
PBW02e;20/04/2023 00:01;20/04/2023 23:59;22/05/2023;PM10;PM10;ug/m3;7.8;A;DATA_VALIDATE_TECH
PBW02e;21/04/2023 00:01;21/04/2023 23:59;22/05/2023;PM10;PM10;ug/m3;3.4;A;DATA_VALIDATE_TECH
PBW02e;22/04/2023 00:01;22/04/2023 23:59;22/05/2023;PM10;PM10;ug/m3;7.1;A;DATA_VALIDATE_TECH
PBW02e;23/04/2023 00:01;23/04/2023 23:59;22/05/2023;PM10;PM10;ug/m3;3;A;DATA_VALIDATE_TECH
PBW02e;24/04/2023 00:01;24/04/2023 23:59;22/05/2023;PM10;PM10;ug/m3;4.9;A;DATA_VALIDATE_TECH
PBW02e;25/04/2023 00:01;25/04/2023 23:59;22/05/2023;PM10;PM10;ug/m3;5.9;A;DATA_VALIDATE_TECH
PBW02e;26/04/2023 00:01;26/04/2023 23:59;22/05/2023;PM10;PM10;ug/m3;13.4;A;DATA_VALIDATE_TECH
PBW02e;27/04/2023 00:01;27/04/2023 23:59;22/05/2023;PM10;PM10;ug/m3;10.3;A;DATA_VALIDATE_TECH
PBW02e;28/04/2023 00:01;28/04/2023 23:59;22/05/2023;PM10;PM10;ug/m3;3;O;DATA_VALIDATE_TECH
PBW02e;29/04/2023 00:01;29/04/2023 23:59;22/05/2023;PM10;PM10;ug/m3;7;A;DATA_VALIDATE_TECH
PBW02e;30/04/2023 00:01;30/04/2023 23:59;22/05/2023;PM10;PM10;ug/m3;11.8;A;DATA_VALIDATE_TECH
PBW02e;01/05/2023 00:01;01/05/2023 23:59;22/05/2023;PM10;PM10;ug/m3;10.5;A;DATA_VALIDATE_TECH
PBW02e;02/05/2023 00:01;02/05/2023 23:59;06/06/2023;PM10;PM10;ug/m3;13.6;A;DATA_VALIDATE_TECH
PBW02e;03/05/2023 00:01;03/05/2023 23:59;06/06/2023;PM10;PM10;ug/m3;12.7;A;DATA_VALIDATE_TECH
PBW02e;04/05/2023 00:01;04/05/2023 23:59;06/06/2023;PM10;PM10;ug/m3;14.4;A;DATA_VALIDATE_TECH
PBW02e;05/05/2023 00:01;05/05/2023 23:59;06/06/2023;PM10;PM10;ug/m3;13.7;A;DATA_VALIDATE_TECH
PBW02e;06/05/2023 00:01;06/05/2023 23:59;06/06/2023;PM10;PM10;ug/m3;6;A;DATA_VALIDATE_TECH
PBW02e;07/05/2023 00:01;07/05/2023 23:59;06/06/2023;PM10;PM10;ug/m3;5;A;DATA_VALIDATE_TECH
PBW02e;08/05/2023 00:01;08/05/2023 23:59;06/06/2023;PM10;PM10;ug/m3;5.7;A;DATA_VALIDATE_TECH
PBW02e;09/05/2023 00:01;09/05/2023 23:59;06/06/2023;PM10;PM10;ug/m3;4.1;A;DATA_VALIDATE_TECH
PBW02e;10/05/2023 00:01;10/05/2023 23:59;06/06/2023;PM10;PM10;ug/m3;3.3;A;DATA_VALIDATE_TECH
PBW02e;11/05/2023 00:01;11/05/2023 23:59;06/06/2023;PM10;PM10;ug/m3;5.7;A;DATA_VALIDATE_TECH
PBW02e;12/05/2023 00:01;12/05/2023 23:59;06/06/2023;PM10;PM10;ug/m3;5.9;A;DATA_VALIDATE_TECH
PBW02e;13/05/2023 00:01;13/05/2023 23:59;06/06/2023;PM10;PM10;ug/m3;8.8;A;DATA_VALIDATE_TECH
PBW02e;14/05/2023 00:01;14/05/2023 23:59;06/06/2023;PM10;PM10;ug/m3;12.4;A;DATA_VALIDATE_TECH
PBW02e;15/05/2023 00:01;15/05/2023 23:59;06/06/2023;PM10;PM10;ug/m3;16.9;A;DATA_VALIDATE_TECH
PBW02e;16/05/2023 00:01;16/05/2023 23:59;16/06/2023;PM10;PM10;ug/m3;6.4;A;DATA_VALIDATE_TECH
PBW02e;17/05/2023 00:01;17/05/2023 23:59;16/06/2023;PM10;PM10;ug/m3;10.1;A;DATA_VALIDATE_TECH
PBW02e;18/05/2023 00:01;18/05/2023 23:59;16/06/2023;PM10;PM10;ug/m3;11;A;DATA_VALIDATE_TECH
PBW02e;19/05/2023 00:01;19/05/2023 23:59;16/06/2023;PM10;PM10;ug/m3;8.7;A;DATA_VALIDATE_TECH
PBW02e;20/05/2023 00:01;20/05/2023 23:59;16/06/2023;PM10;PM10;ug/m3;9.5;A;DATA_VALIDATE_TECH
PBW02e;21/05/2023 00:01;21/05/2023 23:59;16/06/2023;PM10;PM10;ug/m3;15;A;DATA_VALIDATE_TECH
PBW02e;22/05/2023 00:01;22/05/2023 23:59;16/06/2023;PM10;PM10;ug/m3;28;A;DATA_VALIDATE_TECH
PBW02e;23/05/2023 00:01;23/05/2023 23:59;16/06/2023;PM10;PM10;ug/m3;14;A;DATA_VALIDATE_TECH
PBW02e;24/05/2023 00:01;24/05/2023 23:59;16/06/2023;PM10;PM10;ug/m3;14;A;DATA_VALIDATE_TECH
PBW02e;25/05/2023 00:01;25/05/2023 23:59;16/06/2023;PM10;PM10;ug/m3;11.7;A;DATA_VALIDATE_TECH
PBW02e;26/05/2023 00:01;26/05/2023 23:59;16/06/2023;PM10;PM10;ug/m3;14.9;A;DATA_VALIDATE_TECH
PBW02e;27/05/2023 00:01;27/05/2023 23:59;16/06/2023;PM10;PM10;ug/m3;14.3;A;DATA_VALIDATE_TECH
PBW02e;28/05/2023 00:01;28/05/2023 23:59;16/06/2023;PM10;PM10;ug/m3;11.2;A;DATA_VALIDATE_TECH
PBW02e;29/05/2023 00:01;29/05/2023 23:59;16/06/2023;PM10;PM10;ug/m3;12.6;A;DATA_VALIDATE_TECH
PBW02e;30/05/2023 00:01;30/05/2023 23:59;28/06/2023;PM10;PM10;ug/m3;12.8;A;DATA_VALIDATE_TECH
PBW02e;31/05/2023 00:01;31/05/2023 23:59;28/06/2023;PM10;PM10;ug/m3;11.7;A;DATA_VALIDATE_TECH
PBW02e;01/06/2023 00:01;01/06/2023 23:59;28/06/2023;PM10;PM10;ug/m3;13.4;A;DATA_VALIDATE_TECH
PBW02e;02/06/2023 00:01;02/06/2023 23:59;28/06/2023;PM10;PM10;ug/m3;15.9;A;DATA_VALIDATE_TECH
PBW02e;03/06/2023 00:01;03/06/2023 23:59;28/06/2023;PM10;PM10;ug/m3;11.8;A;DATA_VALIDATE_TECH
PBW02e;04/06/2023 00:01;04/06/2023 23:59;28/06/2023;PM10;PM10;ug/m3;10;A;DATA_VALIDATE_TECH
PBW02e;06/06/2023 00:01;06/06/2023 23:59;28/06/2023;PM10;PM10;ug/m3;15.8;A;DATA_VALIDATE_TECH
PBW02e;07/06/2023 00:01;07/06/2023 23:59;28/06/2023;PM10;PM10;ug/m3;22.4;A;DATA_VALIDATE_TECH
PBW02e;08/06/2023 00:01;08/06/2023 23:59;28/06/2023;PM10;PM10;ug/m3;14;A;DATA_VALIDATE_TECH
PBW02e;09/06/2023 00:01;09/06/2023 23:59;28/06/2023;PM10;PM10;ug/m3;12.6;A;DATA_VALIDATE_TECH
PBW02e;10/06/2023 00:01;10/06/2023 23:59;28/06/2023;PM10;PM10;ug/m3;15;A;DATA_VALIDATE_TECH
PBW02e;11/06/2023 00:01;11/06/2023 23:59;28/06/2023;PM10;PM10;ug/m3;13.2;A;DATA_VALIDATE_TECH
PBW02e;12/06/2023 00:01;12/06/2023 23:59;28/06/2023;PM10;PM10;ug/m3;16.4;A;DATA_VALIDATE_TECH
PBW02e;13/06/2023 00:01;13/06/2023 23:59;21/07/2023;PM10;PM10;ug/m3;15.3;A;DATA_VALIDATE_TECH
PBW02e;14/06/2023 00:01;14/06/2023 23:59;21/07/2023;PM10;PM10;ug/m3;15.5;A;DATA_VALIDATE_TECH
PBW02e;15/06/2023 00:01;15/06/2023 23:59;21/07/2023;PM10;PM10;ug/m3;13.8;A;DATA_VALIDATE_TECH
PBW02e;16/06/2023 00:01;16/06/2023 23:59;21/07/2023;PM10;PM10;ug/m3;32.6;A;DATA_VALIDATE_TECH
PBW02e;17/06/2023 00:01;17/06/2023 23:59;21/07/2023;PM10;PM10;ug/m3;22.9;A;DATA_VALIDATE_TECH
PBW02e;18/06/2023 00:01;18/06/2023 23:59;21/07/2023;PM10;PM10;ug/m3;13.6;A;DATA_VALIDATE_TECH
PBW02e;19/06/2023 00:01;19/06/2023 23:59;21/07/2023;PM10;PM10;ug/m3;9.6;A;DATA_VALIDATE_TECH
PBW02e;20/06/2023 00:01;20/06/2023 23:59;21/07/2023;PM10;PM10;ug/m3;11;A;DATA_VALIDATE_TECH
PBW02e;21/06/2023 00:01;21/06/2023 23:59;21/07/2023;PM10;PM10;ug/m3;11.1;A;DATA_VALIDATE_TECH
PBW02e;22/06/2023 00:01;22/06/2023 23:59;21/07/2023;PM10;PM10;ug/m3;12.3;A;DATA_VALIDATE_TECH
PBW02e;23/06/2023 00:01;23/06/2023 23:59;21/07/2023;PM10;PM10;ug/m3;10.5;A;DATA_VALIDATE_TECH
PBW02e;24/06/2023 00:01;24/06/2023 23:59;21/07/2023;PM10;PM10;ug/m3;10.7;A;DATA_VALIDATE_TECH
PBW02e;25/06/2023 00:01;25/06/2023 23:59;21/07/2023;PM10;PM10;ug/m3;12.1;A;DATA_VALIDATE_TECH
PBW02e;26/06/2023 00:01;26/06/2023 23:59;21/07/2023;PM10;PM10;ug/m3;9.3;A;DATA_VALIDATE_TECH
PBW02e;27/06/2023 00:01;27/06/2023 23:59;24/07/2023;PM10;PM10;ug/m3;14.9;A;DATA_VALIDATE_TECH
PBW02e;28/06/2023 00:01;28/06/2023 23:59;24/07/2023;PM10;PM10;ug/m3;15.5;A;DATA_VALIDATE_TECH
PBW02e;29/06/2023 00:01;29/06/2023 23:59;24/07/2023;PM10;PM10;ug/m3;14.9;A;DATA_VALIDATE_TECH
PBW02e;30/06/2023 00:01;30/06/2023 23:59;24/07/2023;PM10;PM10;ug/m3;7.3;A;DATA_VALIDATE_TECH
PBW02e;01/07/2023 00:01;01/07/2023 23:59;24/07/2023;PM10;PM10;ug/m3;5.2;A;DATA_VALIDATE_TECH
PBW02e;02/07/2023 00:01;02/07/2023 23:59;24/07/2023;PM10;PM10;ug/m3;20.2;A;DATA_VALIDATE_TECH
PBW02e;03/07/2023 00:01;03/07/2023 23:59;24/07/2023;PM10;PM10;ug/m3;14.2;A;DATA_VALIDATE_TECH
PBW02e;04/07/2023 00:01;04/07/2023 23:59;24/07/2023;PM10;PM10;ug/m3;22.8;A;DATA_VALIDATE_TECH
PBW02e;05/07/2023 00:01;05/07/2023 23:59;24/07/2023;PM10;PM10;ug/m3;7.2;A;DATA_VALIDATE_TECH
PBW02e;06/07/2023 00:01;06/07/2023 23:59;24/07/2023;PM10;PM10;ug/m3;6.5;A;DATA_VALIDATE_TECH
PBW02e;07/07/2023 00:01;07/07/2023 23:59;24/07/2023;PM10;PM10;ug/m3;12.2;A;DATA_VALIDATE_TECH
PBW02e;08/07/2023 00:01;08/07/2023 23:59;24/07/2023;PM10;PM10;ug/m3;14.7;A;DATA_VALIDATE_TECH
PBW02e;09/07/2023 00:01;09/07/2023 23:59;24/07/2023;PM10;PM10;ug/m3;12.4;A;DATA_VALIDATE_TECH
PBW02e;10/07/2023 00:01;10/07/2023 23:59;24/07/2023;PM10;PM10;ug/m3;11.3;A;DATA_VALIDATE_TECH
PBW02e;11/07/2023 00:01;11/07/2023 23:59;07/08/2023;PM10;PM10;ug/m3;14.8;A;DATA_VALIDATE_TECH
PBW02e;12/07/2023 00:01;12/07/2023 23:59;07/08/2023;PM10;PM10;ug/m3;10.9;A;DATA_VALIDATE_TECH
PBW02e;13/07/2023 00:01;13/07/2023 23:59;07/08/2023;PM10;PM10;ug/m3;9.1;A;DATA_VALIDATE_TECH
PBW02e;14/07/2023 00:01;14/07/2023 23:59;07/08/2023;PM10;PM10;ug/m3;13;A;DATA_VALIDATE_TECH
PBW02e;15/07/2023 00:01;15/07/2023 23:59;07/08/2023;PM10;PM10;ug/m3;7.5;A;DATA_VALIDATE_TECH
PBW02e;16/07/2023 00:01;16/07/2023 23:59;07/08/2023;PM10;PM10;ug/m3;10.9;A;DATA_VALIDATE_TECH
PBW02e;17/07/2023 00:01;17/07/2023 23:59;07/08/2023;PM10;PM10;ug/m3;20.2;A;DATA_VALIDATE_TECH
PBW02e;18/07/2023 00:01;18/07/2023 23:59;07/08/2023;PM10;PM10;ug/m3;10.5;A;DATA_VALIDATE_TECH
PBW02e;19/07/2023 00:01;19/07/2023 23:59;07/08/2023;PM10;PM10;ug/m3;12.3;A;DATA_VALIDATE_TECH
PBW02e;20/07/2023 00:01;20/07/2023 23:59;07/08/2023;PM10;PM10;ug/m3;5.8;A;DATA_VALIDATE_TECH
PBW02e;21/07/2023 00:01;21/07/2023 23:59;07/08/2023;PM10;PM10;ug/m3;7;A;DATA_VALIDATE_TECH
PBW02e;22/07/2023 00:01;22/07/2023 23:59;07/08/2023;PM10;PM10;ug/m3;11.5;A;DATA_VALIDATE_TECH
PBW02e;23/07/2023 00:01;23/07/2023 23:59;07/08/2023;PM10;PM10;ug/m3;7.1;A;DATA_VALIDATE_TECH
PBW02e;24/07/2023 00:01;24/07/2023 23:59;07/08/2023;PM10;PM10;ug/m3;6.6;A;DATA_VALIDATE_TECH
PBW02e;25/07/2023 00:01;25/07/2023 23:59;22/08/2023;PM10;PM10;ug/m3;9.1;A;DATA_VALIDATE_TECH
PBW02e;26/07/2023 00:01;26/07/2023 23:59;22/08/2023;PM10;PM10;ug/m3;7.8;A;DATA_VALIDATE_TECH
PBW02e;27/07/2023 00:01;27/07/2023 23:59;22/08/2023;PM10;PM10;ug/m3;6;A;DATA_VALIDATE_TECH
PBW02e;28/07/2023 00:01;28/07/2023 23:59;22/08/2023;PM10;PM10;ug/m3;3.3;A;DATA_VALIDATE_TECH
PBW02e;29/07/2023 00:01;29/07/2023 23:59;22/08/2023;PM10;PM10;ug/m3;4;A;DATA_VALIDATE_TECH
PBW02e;30/07/2023 00:01;30/07/2023 23:59;22/08/2023;PM10;PM10;ug/m3;6.6;A;DATA_VALIDATE_TECH
PBW02e;31/07/2023 00:01;31/07/2023 23:59;22/08/2023;PM10;PM10;ug/m3;6.5;A;DATA_VALIDATE_TECH
PBW02e;01/08/2023 00:01;01/08/2023 23:59;22/08/2023;PM10;PM10;ug/m3;4.2;A;DATA_VALIDATE_TECH
PBW02e;02/08/2023 00:01;02/08/2023 23:59;22/08/2023;PM10;PM10;ug/m3;6.2;A;DATA_VALIDATE_TECH
PBW02e;03/08/2023 00:01;03/08/2023 23:59;22/08/2023;PM10;PM10;ug/m3;3;O;DATA_VALIDATE_TECH
PBW02e;04/08/2023 00:01;04/08/2023 23:59;22/08/2023;PM10;PM10;ug/m3;6.2;A;DATA_VALIDATE_TECH
PBW02e;05/08/2023 00:01;05/08/2023 23:59;22/08/2023;PM10;PM10;ug/m3;5.5;A;DATA_VALIDATE_TECH
PBW02e;06/08/2023 00:01;06/08/2023 23:59;22/08/2023;PM10;PM10;ug/m3;3;O;DATA_VALIDATE_TECH
PBW02e;07/08/2023 00:01;07/08/2023 23:59;22/08/2023;PM10;PM10;ug/m3;4.9;A;DATA_VALIDATE_TECH
PBW02e;08/08/2023 00:01;08/08/2023 23:59;08/09/2023;PM10;PM10;ug/m3;11;A;DATA_VALIDATE_TECH
PBW02e;09/08/2023 00:01;09/08/2023 23:59;08/09/2023;PM10;PM10;ug/m3;8.8;A;DATA_VALIDATE_TECH
PBW02e;10/08/2023 00:01;10/08/2023 23:59;08/09/2023;PM10;PM10;ug/m3;10.9;A;DATA_VALIDATE_TECH
PBW02e;11/08/2023 00:01;11/08/2023 23:59;08/09/2023;PM10;PM10;ug/m3;11.5;A;DATA_VALIDATE_TECH
PBW02e;12/08/2023 00:01;12/08/2023 23:59;08/09/2023;PM10;PM10;ug/m3;6.3;A;DATA_VALIDATE_TECH
PBW02e;13/08/2023 00:01;13/08/2023 23:59;08/09/2023;PM10;PM10;ug/m3;7.5;A;DATA_VALIDATE_TECH
PBW02e;14/08/2023 00:01;14/08/2023 23:59;08/09/2023;PM10;PM10;ug/m3;9.6;A;DATA_VALIDATE_TECH
PBW02e;15/08/2023 00:01;15/08/2023 23:59;08/09/2023;PM10;PM10;ug/m3;6.2;A;DATA_VALIDATE_TECH
PBW02e;16/08/2023 00:01;16/08/2023 23:59;08/09/2023;PM10;PM10;ug/m3;6.3;A;DATA_VALIDATE_TECH
PBW02e;17/08/2023 00:01;17/08/2023 23:59;08/09/2023;PM10;PM10;ug/m3;6.1;A;DATA_VALIDATE_TECH
PBW02e;18/08/2023 00:01;18/08/2023 23:59;08/09/2023;PM10;PM10;ug/m3;14.2;A;DATA_VALIDATE_TECH
PBW02e;19/08/2023 00:01;19/08/2023 23:59;08/09/2023;PM10;PM10;ug/m3;14.6;A;DATA_VALIDATE_TECH
PBW02e;20/08/2023 00:01;20/08/2023 23:59;08/09/2023;PM10;PM10;ug/m3;7.4;A;DATA_VALIDATE_TECH
PBW02e;21/08/2023 00:01;21/08/2023 23:59;08/09/2023;PM10;PM10;ug/m3;12.2;A;DATA_VALIDATE_TECH
PBW02e;22/08/2023 00:01;22/08/2023 23:59;22/09/2023;PM10;PM10;ug/m3;15;A;DATA_VALIDATE_TECH
PBW02e;23/08/2023 00:01;23/08/2023 23:59;22/09/2023;PM10;PM10;ug/m3;14.5;A;DATA_VALIDATE_TECH
PBW02e;24/08/2023 00:01;24/08/2023 23:59;22/09/2023;PM10;PM10;ug/m3;11;A;DATA_VALIDATE_TECH
PBW02e;25/08/2023 00:01;25/08/2023 23:59;22/09/2023;PM10;PM10;ug/m3;8.3;A;DATA_VALIDATE_TECH
PBW02e;26/08/2023 00:01;26/08/2023 23:59;22/09/2023;PM10;PM10;ug/m3;4.6;A;DATA_VALIDATE_TECH
PBW02e;27/08/2023 00:01;27/08/2023 23:59;22/09/2023;PM10;PM10;ug/m3;3.1;A;DATA_VALIDATE_TECH
PBW02e;28/08/2023 00:01;28/08/2023 23:59;22/09/2023;PM10;PM10;ug/m3;3.9;A;DATA_VALIDATE_TECH
PBW02e;29/08/2023 00:01;29/08/2023 23:59;22/09/2023;PM10;PM10;ug/m3;9.1;A;DATA_VALIDATE_TECH
PBW02e;30/08/2023 00:01;30/08/2023 23:59;22/09/2023;PM10;PM10;ug/m3;5.2;A;DATA_VALIDATE_TECH
PBW02e;31/08/2023 00:01;31/08/2023 23:59;22/09/2023;PM10;PM10;ug/m3;5.9;A;DATA_VALIDATE_TECH
PBW02e;01/09/2023 00:01;01/09/2023 23:59;22/09/2023;PM10;PM10;ug/m3;3;O;DATA_VALIDATE_TECH
PBW02e;02/09/2023 00:01;02/09/2023 23:59;22/09/2023;PM10;PM10;ug/m3;3;O;DATA_VALIDATE_TECH
PBW02e;03/09/2023 00:01;03/09/2023 23:59;22/09/2023;PM10;PM10;ug/m3;6.8;A;DATA_VALIDATE_TECH
PBW02e;04/09/2023 00:01;04/09/2023 23:59;22/09/2023;PM10;PM10;ug/m3;8.5;A;DATA_VALIDATE_TECH
PBW02e;05/09/2023 00:01;05/09/2023 23:59;05/10/2023;PM10;PM10;ug/m3;7.3;A;DATA_VALIDATE_TECH
PBW02e;06/09/2023 00:01;06/09/2023 23:59;05/10/2023;PM10;PM10;ug/m3;10.2;A;DATA_VALIDATE_TECH
PBW02e;07/09/2023 00:01;07/09/2023 23:59;05/10/2023;PM10;PM10;ug/m3;12.8;A;DATA_VALIDATE_TECH